GOES 17

Last updated on Mon Oct 14 2024 00:02:17 GMT+0000 (Coordinated Universal Time)

1 43226U 18022A 24287.50703693 -.00000092 00000+0 00000+0 0 9996 2 43226 0.0457 54.0878 0002746 171.3048 235.0145 1.00271186 24293
UTC large
Height (km)
Speed (km/s)
/
Latitude / Longitude
Inclination (degrees)
Orbital Period (minutes)
Azimuth
Elevation
Range (km)
Doppler Factor

Next 0 passes for location: London (51.5072 / 0.1276)

Sorry there are no passes over London.